Wind_Speed
24 24 25 26 27 27 28 28 29 29 30 30 31 32 33 33 34 36 37 39 41 42 44 45 46 46 47 46 46 47 46 45 45 44 44 45 45 46 45 45 45 45 45
25 25 26 27 27 27 28 28 29 29 30 31 31 32 32 33 34 35 36 37 39 41 43 44 45 46 46 47 47 47 47 46 45 45 45 46 46 46 47 46 46 46 45
26 26 27 27 27 28 28 29 29 30 31 31 31 31 32 32 32 33 34 36 37 39 40 42 43 45 46 47 48 48 48 47 46 46 46 46 46 47 47 47 47 46 46
27 27 28 28 28 29 30 30 31 31 31 31 31 31 31 30 30 30 31 32 34 36 38 40 41 43 44 45 47 47 48 48 47 46 47 47 46 46 46 45 47 47 47
27 28 28 28 29 30 31 31 31 31 31 31 30 30 29 29 28 28 28 29 30 32 34 37 39 41 42 44 45 47 47 47 47 46 46 46 46 46 46 45 46 46 47
28 28 29 29 30 30 31 31 31 31 31 30 29 28 28 28 27 27 26 27 27 29 30 33 36 38 40 42 43 45 46 47 47 47 46 46 46 47 47 46 46 47 47
29 29 30 30 30 31 31 31 31 31 30 29 28 28 27 26 25 25 25 25 25 26 28 30 33 35 37 39 42 44 45 46 47 46 47 46 46 47 47 47 46 46 47
29 29 30 31 31 31 31 31 31 30 30 29 28 27 25 24 24 24 23 22 22 23 25 26 29 31 34 37 39 42 44 46 46 47 47 47 48 47 48 48 47 46 47
29 30 31 31 31 32 32 31 31 30 29 28 28 26 25 24 24 22 21 20 20 20 21 24 26 29 30 33 37 39 42 44 46 47 47 48 49 48 48 48 47 47 48
30 30 31 32 32 32 32 31 30 29 29 28 27 26 25 24 23 21 20 18 17 18 19 20 22 25 28 30 32 36 39 42 44 46 47 48 49 49 49 48 48 47 49
31 31 31 32 32 32 32 31 30 29 29 28 27 27 25 24 23 21 19 17 16 15 16 18 20 22 24 28 30 32 36 39 42 42 44 46 49 50 50 49 49 48 48
31 31 32 32 33 33 32 31 30 29 29 28 27 27 26 25 23 21 18 16 14 13 13 14 17 19 21 24 28 31 34 36 39 40 42 43 45 48 50 50 50 49 49
31 31 32 32 33 33 33 31 30 29 29 28 28 27 27 25 23 21 18 16 13 11 11 12 14 16 19 21 24 27 30 33 35 38 40 41 43 46 48 49 49 50 49
31 32 32 32 33 33 33 32 30 30 29 28 28 28 28 26 23 20 18 16 13 11 9 10 11 13 16 19 21 24 27 30 32 35 38 39 41 43 45 47 47 49 50
32 32 32 32 33 33 33 32 30 30 29 29 28 28 28 26 24 21 18 15 13 11 9 8 8 10 13 16 18 21 24 27 29 32 36 38 39 40 42 45 46 47 49
32 33 33 33 33 33 33 32 31 30 29 29 28 27 27 26 24 21 18 16 13 11 9 8 7 8 9 11 14 17 21 25 28 30 32 35 37 39 41 43 45 46 46
33 33 33 33 33 33 33 32 31 30 29 28 27 26 26 25 24 21 18 16 14 12 10 8 7 6 7 9 10 13 17 20 23 27 30 33 35 37 39 41 42 44 44
33 33 33 32 32 33 33 32 30 29 29 28 27 26 25 25 23 21 18 16 14 13 11 9 7 5 5 7 9 11 14 17 20 23 26 29 32 35 37 39 40 42 43
33 34 33 32 32 33 32 31 30 29 28 27 27 26 25 24 22 20 18 16 14 12 11 9 7 6 5 6 8 10 12 15 17 20 23 26 29 31 34 36 39 40 41
33 33 33 32 33 33 32 31 30 29 27 27 26 25 24 23 22 19 18 16 14 12 11 8 7 6 6 6 6 9 11 13 16 18 20 23 25 28 31 33 35 38 40
33 33 32 32 32 32 32 31 30 29 27 26 26 25 24 23 21 19 18 16 14 12 11 9 8 7 6 6 6 8 9 11 13 16 19 21 23 25 28 30 32 34 37
33 32 32 32 32 32 32 31 29 28 27 26 25 25 24 23 21 19 17 15 14 12 10 9 8 8 7 6 6 6 8 9 11 13 16 19 21 24 26 28 30 31 33
33 32 32 32 32 31 31 30 29 28 26 25 24 24 24 22 20 18 17 15 13 12 10 9 9 8 7 6 6 6 7 8 10 11 13 16 19 21 24 26 28 29 31
34 33 33 32 31 30 29 29 28 26 25 25 24 23 22 20 19 18 16 14 13 12 11 10 9 8 7 6 6 6 6 6 7 9 11 13 15 18 20 23 25 28 29
35 34 33 32 30 29 28 28 27 26 25 24 23 22 21 20 18 17 16 15 13 12 11 10 8 8 7 6 5 5 5 5 5 6 7 10 13 15 17 19 22 24 27
35 34 32 31 30 29 28 27 26 25 24 23 22 21 20 19 17 16 15 14 13 11 10 9 8 8 8 6 5 5 5 5 6 6 7 8 10 12 15 17 19 21 23
Wind_Direction
327 325 323 321 319 318 316 313 310 307 303 299 296 292 288 284 280 275 270 265 261 258 255 252 250 247 245 244 242 239 237 236 234 233 232 231 230 229 229 228 225 225 226
331 329 327 325 324 322 321 318 315 312 308 304 300 296 291 287 282 278 273 268 263 259 256 252 249 247 245 243 241 239 237 235 234 232 231 231 230 229 229 228 226 226 225
334 332 330 329 327 325 324 321 319 316 313 308 304 300 296 290 285 280 275 270 265 260 256 253 249 247 244 242 240 239 237 235 233 231 231 230 229 228 227 227 227 225 225
336 334 332 331 329 327 326 325 322 319 316 312 309 305 300 295 289 283 278 273 266 261 256 252 249 246 243 240 239 238 237 234 232 230 229 229 228 227 226 226 225 225 224
338 336 334 333 331 329 328 327 326 323 320 317 313 309 304 300 294 288 282 276 270 263 257 252 248 244 242 240 238 236 235 234 231 229 227 227 226 225 225 225 224 224 224
340 339 336 334 333 332 331 331 329 327 325 322 318 313 309 304 298 291 284 279 272 265 258 253 248 243 241 239 237 235 234 232 231 229 227 226 225 224 223 223 223 223 223
341 340 338 336 335 334 334 334 333 331 330 328 324 319 315 310 304 297 290 282 274 267 259 253 249 244 240 237 236 234 232 231 231 229 227 224 222 221 222 222 222 222 222
342 342 341 340 338 337 336 336 336 335 335 333 330 327 322 317 313 306 297 287 277 269 261 254 249 244 240 235 233 232 231 231 230 229 226 224 220 219 220 221 220 220 221
344 343 343 342 341 340 339 339 338 338 338 337 336 333 329 324 320 314 305 293 282 272 263 255 248 243 240 235 232 231 230 229 229 229 228 226 223 220 218 219 219 220 219
346 345 345 345 344 343 342 341 341 340 340 341 340 338 334 331 326 321 314 301 289 278 267 256 249 242 239 234 232 230 230 228 228 228 229 227 225 223 221 220 220 220 220
347 347 347 346 346 345 344 344 343 343 342 343 342 341 338 335 331 326 319 309 295 284 272 258 250 241 239 236 232 231 230 228 227 227 227 227 226 224 223 224 222 222 220
348 348 347 347 347 346 346 346 346 345 345 345 345 343 342 339 336 333 326 319 306 288 276 262 251 244 240 238 235 234 231 229 228 227 226 225 224 224 224 224 224 223 223
347 348 348 348 348 348 347 346 347 347 347 347 347 347 346 344 341 339 335 329 321 303 284 269 258 249 240 236 236 233 232 230 228 227 226 225 224 223 224 225 226 225 224
347 347 347 348 348 348 348 347 348 348 348 348 348 349 349 348 345 343 340 336 329 317 300 285 268 255 244 238 236 231 230 229 227 226 225 225 224 225 226 227 228 227 227
346 346 346 347 348 348 348 348 348 348 348 348 349 350 351 351 349 347 345 342 337 330 313 297 279 258 248 242 239 234 230 228 225 224 225 225 224 226 227 227 229 229 228
345 345 345 345 347 348 348 348 348 348 347 347 348 349 350 351 351 349 348 345 341 340 334 316 295 270 254 245 238 234 232 230 228 226 226 226 225 225 226 226 227 227 228
344 344 344 345 346 347 347 347 347 347 347 347 348 348 350 351 353 353 351 350 346 340 335 328 312 284 260 246 239 235 232 230 228 227 227 227 227 226 226 225 225 225 227
342 343 343 344 345 346 346 346 346 346 346 346 346 347 348 350 351 353 353 353 351 345 340 335 326 301 275 256 243 236 232 228 227 227 227 227 228 226 226 226 227 226 227
339 340 341 341 342 344 345 345 344 344 345 345 345 345 346 348 349 351 353 352 351 350 346 340 333 318 295 271 251 239 233 231 230 229 226 225 226 225 224 225 226 227 227
334 336 337 337 338 340 342 343 343 343 343 343 345 346 345 346 348 349 351 351 350 346 343 337 328 319 307 286 262 245 238 236 235 233 229 226 225 224 222 222 224 224 224
330 331 332 333 334 336 338 340 340 341 340 341 343 344 345 344 344 344 346 347 347 344 342 339 329 313 308 298 272 251 243 241 238 235 231 228 226 224 223 222 222 223 223
325 327 328 329 330 331 334 335 337 338 339 338 339 340 342 343 342 341 340 342 343 341 338 336 335 328 311 299 280 262 249 242 241 239 234 229 227 225 223 222 221 222 223
322 322 323 324 326 327 328 330 332 334 336 337 338 338 340 341 341 341 339 337 338 338 335 331 327 325 317 302 287 276 264 253 246 241 236 229 226 224 223 222 222 223 223
317 317 318 319 321 323 324 326 328 330 332 334 335 336 338 339 340 340 339 337 337 336 335 332 327 324 316 302 292 282 274 263 252 241 234 227 223 221 221 221 222 223 224
311 312 313 315 316 318 319 321 323 325 326 328 330 331 334 335 336 338 340 339 337 336 334 334 331 326 323 314 297 282 272 261 252 242 230 223 220 220 220 220 220 220 222
306 308 309 310 311 313 314 316 318 319 321 323 325 326 327 329 330 332 334 335 334 333 333 334 332 327 320 315 306 288 274 262 250 242 230 222 218 217 217 216 216 217 218
Height
5785 5780 5776 5771 5767 5762 5757 5752 5748 5743 5739 5735 5732 5728 5725 5722 5720 5719 5718 5718 5719 5720 5721 5724 5727 5729 5733 5737 5741 5745 5750 5754 5760 5765 5770 5775 5780 5785 5791 5796 5802 5807 5813
5780 5775 5770 5765 5760 5755 5750 5745 5740 5735 5731 5726 5722 5718 5714 5711 5709 5706 5705 5705 5705 5706 5707 5710 5713 5716 5720 5724 5728 5733 5738 5743 5748 5754 5759 5764 5770 5775 5781 5787 5793 5798 5804
5775 5770 5764 5759 5754 5749 5743 5738 5733 5727 5722 5717 5712 5708 5704 5700 5697 5694 5693 5692 5692 5692 5694 5696 5699 5702 5706 5710 5715 5720 5726 5731 5737 5743 5748 5754 5759 5765 5771 5777 5783 5789 5795
5770 5765 5759 5754 5748 5743 5737 5731 5725 5720 5714 5708 5703 5698 5693 5689 5686 5683 5681 5680 5679 5679 5680 5682 5685 5688 5693 5697 5702 5708 5713 5719 5725 5732 5737 5743 5749 5755 5761 5767 5773 5779 5785
5765 5760 5754 5748 5743 5737 5731 5724 5718 5712 5706 5700 5694 5689 5684 5680 5676 5673 5671 5669 5668 5668 5668 5670 5672 5676 5680 5685 5690 5696 5702 5707 5713 5720 5726 5732 5738 5745 5751 5758 5764 5769 5776
5761 5755 5749 5743 5737 5731 5725 5718 5712 5705 5699 5692 5686 5681 5675 5671 5667 5663 5661 5659 5657 5657 5657 5659 5661 5664 5669 5673 5678 5684 5690 5696 5702 5708 5715 5722 5728 5735 5741 5748 5754 5760 5767
5757 5751 5745 5739 5732 5726 5719 5712 5705 5699 5692 5686 5679 5673 5668 5663 5659 5655 5652 5649 5648 5647 5647 5648 5650 5653 5657 5662 5667 5672 5678 5684 5691 5697 5704 5711 5718 5725 5732 5738 5744 5750 5757
5753 5747 5741 5734 5727 5721 5714 5707 5700 5693 5686 5680 5673 5667 5661 5656 5652 5647 5644 5641 5639 5638 5638 5639 5641 5643 5646 5651 5656 5661 5667 5673 5680 5687 5694 5701 5707 5713 5721 5728 5734 5741 5747
5750 5743 5737 5730 5723 5716 5709 5702 5695 5688 5681 5675 5668 5662 5656 5651 5645 5641 5636 5633 5632 5630 5630 5631 5632 5634 5637 5641 5646 5652 5657 5663 5669 5676 5683 5689 5696 5703 5711 5718 5724 5731 5737
5746 5740 5733 5726 5719 5712 5705 5698 5691 5684 5677 5670 5664 5657 5651 5646 5640 5635 5631 5627 5625 5623 5623 5623 5624 5627 5629 5633 5638 5642 5647 5653 5659 5665 5672 5679 5686 5693 5700 5708 5715 5722 5728
5743 5736 5729 5723 5716 5708 5701 5694 5687 5680 5673 5666 5660 5654 5647 5642 5636 5631 5626 5622 5619 5618 5617 5617 5618 5620 5622 5626 5630 5634 5638 5643 5649 5655 5662 5668 5675 5683 5691 5698 5705 5712 5719
5740 5733 5726 5719 5712 5705 5698 5691 5684 5677 5670 5663 5657 5650 5644 5638 5632 5627 5622 5618 5615 5613 5612 5612 5612 5614 5616 5619 5622 5626 5630 5635 5640 5646 5652 5659 5666 5673 5681 5688 5696 5703 5710
5736 5730 5723 5716 5709 5702 5695 5688 5681 5674 5667 5661 5654 5647 5641 5635 5629 5624 5619 5615 5611 5609 5608 5607 5608 5608 5610 5612 5615 5619 5623 5627 5633 5638 5644 5651 5657 5664 5671 5678 5685 5693 5700
5733 5726 5720 5713 5706 5699 5692 5685 5678 5671 5665 5658 5652 5645 5639 5632 5627 5621 5617 5613 5609 5607 5605 5604 5604 5604 5605 5606 5609 5612 5616 5620 5625 5630 5636 5642 5649 5655 5661 5668 5675 5682 5690
5730 5723 5717 5710 5703 5696 5689 5682 5675 5669 5662 5656 5650 5643 5637 5631 5625 5619 5615 5611 5608 5605 5603 5602 5601 5600 5601 5602 5604 5606 5610 5614 5618 5623 5629 5635 5640 5646 5652 5659 5666 5672 5680
5726 5720 5713 5707 5700 5693 5686 5679 5673 5667 5660 5654 5648 5642 5635 5629 5623 5618 5614 5610 5606 5604 5601 5600 5598 5598 5598 5598 5600 5602 5604 5608 5612 5617 5622 5626 5632 5638 5644 5650 5657 5663 5670
5723 5716 5710 5703 5697 5690 5683 5677 5670 5665 5658 5652 5646 5640 5634 5628 5623 5618 5613 5609 5606 5603 5600 5598 5597 5596 5596 5596 5597 5598 5600 5603 5606 5610 5615 5619 5624 5630 5635 5641 5647 5654 5661
5719 5713 5707 5700 5694 5688 5681 5674 5668 5662 5656 5650 5644 5639 5633 5627 5622 5617 5612 5608 5605 5602 5599 5597 5596 5595 5594 5594 5595 5595 5597 5599 5602 5605 5609 5613 5617 5622 5627 5633 5638 5645 5651
5715 5709 5703 5697 5691 5685 5678 5672 5666 5660 5654 5648 5643 5637 5632 5626 5621 5616 5612 5608 5604 5601 5599 5597 5595 5594 5593 5593 5593 5593 5594 5596 5598 5600 5603 5607 5611 5615 5620 5625 5630 5636 5642
5711 5705 5699 5693 5687 5681 5675 5669 5663 5658 5652 5647 5641 5636 5630 5625 5620 5616 5611 5607 5604 5601 5598 5596 5594 5593 5592 5591 5591 5591 5592 5593 5594 5596 5598 5601 5604 5608 5613 5618 5623 5628 5634
5705 5700 5694 5689 5683 5678 5672 5666 5661 5655 5650 5644 5639 5634 5629 5624 5619 5615 5611 5607 5603 5600 5598 5595 5593 5592 5590 5589 5589 5589 5589 5590 5590 5592 5594 5596 5599 5602 5606 5611 5616 5621 5626
5699 5694 5689 5684 5679 5674 5668 5663 5658 5652 5647 5642 5637 5632 5627 5622 5618 5613 5609 5606 5602 5599 5597 5594 5592 5590 5589 5588 5587 5586 5586 5586 5587 5588 5589 5591 5594 5597 5600 5604 5609 5614 5619
5693 5688 5684 5679 5674 5669 5664 5659 5654 5649 5644 5639 5634 5630 5625 5620 5616 5612 5608 5604 5601 5598 5595 5593 5591 5589 5587 5586 5585 5584 5584 5584 5584 5584 5585 5587 5589 5592 5595 5599 5603 5607 5612
5686 5681 5677 5673 5668 5664 5659 5655 5650 5645 5640 5636 5631 5627 5623 5618 5614 5610 5606 5603 5600 5597 5594 5592 5590 5588 5586 5585 5583 5582 5582 5581 5581 5581 5582 5583 5585 5588 5590 5594 5597 5601 5606
5678 5674 5670 5666 5662 5658 5654 5649 5645 5641 5637 5632 5628 5624 5620 5616 5612 5608 5605 5602 5599 5596 5593 5591 5589 5587 5585 5583 5582 5581 5580 5580 5579 5579 5579 5580 5582 5584 5586 5589 5592 5596 5600
5669 5665 5662 5658 5655 5651 5647 5644 5640 5636 5632 5628 5625 5621 5617 5613 5610 5606 5603 5600 5597 5594 5592 5590 5587 5585 5584 5582 5581 5580 5579 5579 5578 5578 5578 5579 5580 5582 5583 5586 5588 5591 5595